Regional Weather Roundup
Issued by NWS Little Rock, AR

Home | Current Version | Previous Version | Graphics & Text | Print | Product List | Glossary On
Versions: 1 2 3 4 5 6 7 8 9 10 11 12 13 14 15 16 17 18 19 20 21 22 23 24 25 26 27 28 29 30 31 32
000
ASUS44 KLZK 290605
RWRLZK

WEATHER ROUNDUP FOR ARKANSAS
NATIONAL WEATHER SERVICE LITTLE ROCK AR
100 AM CDT WED MAR 29 2017

NOTE: "FAIR" INDICATES FEW OR NO CLOUDS BELOW 12,000 FEET WITH NO
SIGNIFICANT WEATHER AND/OR OBSTRUCTIONS TO VISIBILITY.

ARZ001-003-010-029-290700-
NORTHWEST ARKANSAS

CITY           SKY/WX    TMP DP  RH WIND       PRES   REMARKS
FAYETTEVILLE   CLOUDY    64  58  80 SE12      29.82F
6HR MIN TEMP:  64; 6HR MAX TEMP:  71; 6HR PCP: TRACE;

FORT SMITH     CLOUDY    66  56  70 E14G21    29.81S
6HR MIN TEMP:  66; 6HR MAX TEMP:  75;

HARRISON       CLOUDY    58  53  84 SE14G24   29.92F
6HR MIN TEMP:  58; 6HR MAX TEMP:  67;

BENTONVILLE    MOCLDY    63  55  77 SE14G24   29.83F
6HR MIN TEMP:  63; 6HR MAX TEMP:  70;

ROGERS         MOCLDY    62  55  77 E16G23    29.83F
6HR MIN TEMP:  62; 6HR MAX TEMP:  68; 6HR PCP: TRACE;

SILOAM SPGS    MOCLDY    64  55  72 E10       29.79F
6HR MIN TEMP:  64; 6HR MAX TEMP:  72;

HIGHFILL       MOCLDY    64  57  78 SE17G25   29.81F
6HR MIN TEMP:  64; 6HR MAX TEMP:  70;

$$

ARZ004-005-016-290700-
NORTH CENTRAL ARKANSAS

CITY           SKY/WX    TMP DP  RH WIND       PRES   REMARKS
BATESVILLE     CLOUDY    57  52  82 E12       29.99F
6HR MIN TEMP:  57; 6HR MAX TEMP:  66;

FLIPPIN        PTCLDY    57  48  72 E8G18     29.93F
6HR MIN TEMP:  57; 6HR MAX TEMP:  68;

MTN HOME       MOCLDY    56  51  84 SE13G22   29.95F
6HR MIN TEMP:  56; 6HR MAX TEMP:  67;

$$

ARZ040-041-290700-
WEST CENTRAL ARKANSAS

CITY           SKY/WX    TMP DP  RH WIND       PRES   REMARKS
MENA           CLOUDY    68  68 100 E8        29.84F
MOUNT IDA      MOCLDY    67  59  75 E5        29.84S
6HR MIN TEMP:  67; 6HR MAX TEMP:  74;

$$

ARZ009-017-025-026-028-290700-
NORTHEAST ARKANSAS

CITY           SKY/WX    TMP DP  RH WIND       PRES   REMARKS
CORNING        FAIR      55  54  94 NE10      30.02F
JONESBORO      CLOUDY    57  53  86 NE15      29.99S
6HR MIN TEMP:  56; 6HR MAX TEMP:  64;

NEWPORT        MOCLDY    58  55  90 NE13      29.98F
6HR MIN TEMP:  58; 6HR MAX TEMP:  65; 6HR PCP: TRACE;

WALNUT RIDGE   CLOUDY    55  48  76 NE15      30.00F
6HR MIN TEMP:  55; 6HR MAX TEMP:  63;

BLYTHEVILLE    CLEAR     57  55  93 E9        30.01S
6HR MIN TEMP:  57; 6HR MAX TEMP:  65;

$$

ARZ022-023-033-042-044-290700-
CENTRAL ARKANSAS

CITY           SKY/WX    TMP DP  RH WIND       PRES   REMARKS
LITTLE ROCK    CLOUDY    63  58  83 E10       29.91F
6HR MIN TEMP:  63; 6HR MAX TEMP:  70;

N LITTLE ROCK    N/A     62  56  82 E14G22    29.91F
6HR MIN TEMP:  62; 6HR MAX TEMP:  70;

JACKSONVILLE   CLEAR     63  56  80 E20       29.90F
6HR MIN TEMP:  63; 6HR MAX TEMP:  70;

CONWAY           N/A     63  57  82 E13G21    29.89F
SEARCY         CLOUDY    60  56  86 NE13      29.96F
6HR MIN TEMP:  60; 6HR MAX TEMP:  68;

HOT SPRINGS    MOCLDY    67  60  78 E9        29.88R
6HR MIN TEMP:  67; 6HR MAX TEMP:  74;

RUSSELLVILLE   MOCLDY    63  56  78 E12G20    29.88F
6HR MIN TEMP:  63; 6HR MAX TEMP:  72;

$$

ARZ036-290700-
EAST ARKANSAS

CITY           SKY/WX    TMP DP  RH WIND       PRES   REMARKS
WEST MEMPHIS   CLEAR     62  56  80 E7        29.95S
6HR MIN TEMP:  62; 6HR MAX TEMP:  70;

$$

ARZ050-053-066-070-073-290700-
SOUTHWEST ARKANSAS

CITY           SKY/WX    TMP DP  RH WIND       PRES   REMARKS
ARKADELPHIA    MOCLDY    68  62  81 CALM      29.88R
6HR MIN TEMP:  68; 6HR MAX TEMP:  75;

CAMDEN         CLEAR     68  63  83 SE5       29.86S
TEXARKANA      CLEAR     68  63  84 SE5       29.82S
6HR MIN TEMP:  68; 6HR MAX TEMP:  75;

EL DORADO      MOCLDY    69  64  84 SE5       29.86S
6HR MIN TEMP:  68; 6HR MAX TEMP:  78;

DE QUEEN       CLOUDY    72  66  81 SE7       29.80R
6HR MIN TEMP:  71; 6HR MAX TEMP:  74;

$$

ARZ056-057-069-290700-
SOUTHEAST ARKANSAS

CITY           SKY/WX    TMP DP  RH WIND       PRES   REMARKS
PINE BLUFF     PTCLDY    66  59  78 E8        29.89F
6HR MIN TEMP:  66; 6HR MAX TEMP:  75;

STUTTGART      MOCLDY    64  52  63 NE15      29.92F
6HR MIN TEMP:  64; 6HR MAX TEMP:  73;

MONTICELLO     PTCLDY    68  63  84 E3        29.87F
6HR MIN TEMP:  65; 6HR MAX TEMP:  78;


$$






USA.gov is the U.S. government's official web portal to all federal, state and local government web resources and services.